Time,TemperatureF,DewpointF,PressureIn,WindDirection,WindDirectionDegrees,WindSpeedMPH,WindSpeedGustMPH,Humidity,HourlyPrecipIn,Conditions,Clouds,dailyrainin,SoftwareType,DateUTC
2013-01-18 00:00:00,23.1,15.4,30.46,NNE,12,0.0,0.0,72,0.00,,,0.03,Wunderground v.1.15,2013-01-18 06:00:00,
2013-01-18 00:06:00,23.2,15.5,30.47,NNE,12,0.0,1.0,72,0.00,,,0.00,Wunderground v.1.15,2013-01-18 06:06:00,
2013-01-18 00:12:00,23.3,15.6,30.47,North,11,0.0,2.0,72,0.00,,,0.00,Wunderground v.1.15,2013-01-18 06:12:00,
2013-01-18 00:18:00,23.5,15.8,30.47,NNE,12,1.0,2.0,72,0.00,,,0.00,Wunderground v.1.15,2013-01-18 06:18:00,
2013-01-18 00:24:00,23.6,16.2,30.47,North,11,2.0,2.0,73,0.00,,,0.00,Wunderground v.1.15,2013-01-18 06:24:00,
2013-01-18 00:30:00,23.7,16.0,30.47,NNE,12,2.0,2.0,72,0.00,,,0.00,Wunderground v.1.15,2013-01-18 06:30:00,
2013-01-18 00:36:00,23.8,16.4,30.47,North,11,2.0,2.0,73,0.00,,,0.00,Wunderground v.1.15,2013-01-18 06:36:00,
2013-01-18 00:42:00,23.9,16.5,30.47,North,11,1.0,2.0,73,0.00,,,0.00,Wunderground v.1.15,2013-01-18 06:42:00,
2013-01-18 00:48:00,24.1,16.7,30.47,North,11,1.0,2.0,73,0.00,,,0.00,Wunderground v.1.15,2013-01-18 06:48:00,
2013-01-18 00:54:00,24.3,16.9,30.47,NNE,12,0.0,1.0,73,0.00,,,0.00,Wunderground v.1.15,2013-01-18 06:54:00,
2013-01-18 01:00:00,24.4,17.0,30.47,North,11,1.0,1.0,73,0.00,,,0.00,Wunderground v.1.15,2013-01-18 07:00:00,
2013-01-18 01:06:00,24.5,17.1,30.47,NNE,12,1.0,2.0,73,0.00,,,0.00,Wunderground v.1.15,2013-01-18 07:06:00,
2013-01-18 01:12:00,24.6,17.2,30.47,North,11,1.0,2.0,73,0.00,,,0.00,Wunderground v.1.15,2013-01-18 07:12:00,
2013-01-18 01:18:00,24.6,17.2,30.48,NNE,12,1.0,2.0,73,0.00,,,0.00,Wunderground v.1.15,2013-01-18 07:18:00,
2013-01-18 01:24:00,24.7,17.3,30.48,North,11,1.0,1.0,73,0.00,,,0.00,Wunderground v.1.15,2013-01-18 07:24:00,
2013-01-18 01:30:00,24.6,17.2,30.48,NNE,12,1.0,1.0,73,0.00,,,0.00,Wunderground v.1.15,2013-01-18 07:30:00,
2013-01-18 01:36:00,24.6,17.5,30.48,NNE,12,1.0,2.0,74,0.00,,,0.00,Wunderground v.1.15,2013-01-18 07:36:00,
2013-01-18 01:42:00,24.8,17.7,30.47,North,11,2.0,2.0,74,0.00,,,0.00,Wunderground v.1.15,2013-01-18 07:42:00,
2013-01-18 01:48:00,24.9,17.8,30.48,NNE,13,2.0,2.0,74,0.00,,,0.00,Wunderground v.1.15,2013-01-18 07:48:00,
2013-01-18 01:54:00,25.3,18.2,30.47,NNE,13,2.0,2.0,74,0.00,,,0.00,Wunderground v.1.15,2013-01-18 07:54:00,
2013-01-18 02:00:00,25.5,18.7,30.47,NNE,14,2.0,2.0,75,0.00,,,0.00,Wunderground v.1.15,2013-01-18 08:00:00,
2013-01-18 02:06:00,25.8,19.0,30.47,NNE,15,2.0,3.0,75,0.00,,,0.00,Wunderground v.1.15,2013-01-18 08:06:00,
2013-01-18 02:12:00,26.1,19.3,30.47,NNE,19,3.0,4.0,75,0.00,,,0.00,Wunderground v.1.15,2013-01-18 08:12:00,
2013-01-18 02:18:00,26.4,19.5,30.47,East,99,3.0,7.0,75,0.00,,,0.00,Wunderground v.1.15,2013-01-18 08:18:00,
2013-01-18 02:24:00,27.2,20.3,30.47,SSE,160,4.0,9.0,75,0.00,,,0.00,Wunderground v.1.15,2013-01-18 08:24:00,
2013-01-18 02:30:00,27.9,21.0,30.47,SSE,159,4.0,5.0,75,0.00,,,0.00,Wunderground v.1.15,2013-01-18 08:30:00,
2013-01-18 02:36:00,28.4,21.5,30.47,SSE,161,4.0,5.0,75,0.00,,,0.00,Wunderground v.1.15,2013-01-18 08:36:00,
2013-01-18 02:42:00,28.7,21.8,30.47,SSE,163,3.0,4.0,75,0.00,,,0.00,Wunderground v.1.15,2013-01-18 08:42:00,
2013-01-18 02:48:00,28.9,22.0,30.46,SSE,164,4.0,7.0,75,0.00,,,0.00,Wunderground v.1.15,2013-01-18 08:48:00,
2013-01-18 02:54:00,29.1,22.2,30.46,SSE,160,4.0,6.0,75,0.00,,,0.00,Wunderground v.1.15,2013-01-18 08:54:00,
2013-01-18 03:00:00,29.4,22.5,30.47,SSE,163,4.0,4.0,75,0.00,,,0.00,Wunderground v.1.15,2013-01-18 09:00:00,
2013-01-18 03:06:00,29.6,22.6,30.47,SSE,165,4.0,5.0,75,0.00,,,0.00,Wunderground v.1.15,2013-01-18 09:06:00,
2013-01-18 03:12:00,29.5,22.6,30.46,SSE,166,2.0,3.0,75,0.00,,,0.00,Wunderground v.1.15,2013-01-18 09:12:00,
2013-01-18 03:18:00,29.4,22.5,30.46,SSE,167,3.0,5.0,75,0.00,,,0.00,Wunderground v.1.15,2013-01-18 09:18:00,
2013-01-18 03:24:00,29.4,22.5,30.46,SSE,167,3.0,4.0,75,0.00,,,0.00,Wunderground v.1.15,2013-01-18 09:24:00,
2013-01-18 03:30:00,29.4,22.5,30.46,SSE,168,3.0,3.0,75,0.00,,,0.00,Wunderground v.1.15,2013-01-18 09:30:00,
2013-01-18 03:36:00,29.5,22.6,30.46,South,171,4.0,4.0,75,0.00,,,0.00,Wunderground v.1.15,2013-01-18 09:36:00,
2013-01-18 03:42:00,29.7,22.7,30.46,South,180,4.0,4.0,75,0.00,,,0.00,Wunderground v.1.15,2013-01-18 09:42:00,
2013-01-18 03:48:00,29.8,22.8,30.45,South,173,3.0,5.0,75,0.00,,,0.00,Wunderground v.1.15,2013-01-18 09:48:00,
2013-01-18 03:54:00,30.0,23.0,30.45,SSE,165,4.0,5.0,75,0.00,,,0.00,Wunderground v.1.15,2013-01-18 09:54:00,
2013-01-18 04:00:00,30.1,23.1,30.44,SSE,167,4.0,4.0,75,0.00,,,0.00,Wunderground v.1.15,2013-01-18 10:00:00,
2013-01-18 04:06:00,30.1,23.1,30.44,SSE,164,5.0,5.0,75,0.00,,,0.00,Wunderground v.1.15,2013-01-18 10:06:00,
2013-01-18 04:12:00,30.1,23.1,30.44,SSE,165,5.0,8.0,75,0.00,,,0.00,Wunderground v.1.15,2013-01-18 10:12:00,
2013-01-18 04:18:00,30.1,23.1,30.44,SSE,161,5.0,8.0,75,0.00,,,0.00,Wunderground v.1.15,2013-01-18 10:18:00,
2013-01-18 04:24:00,30.2,23.2,30.44,South,169,6.0,6.0,75,0.00,,,0.00,Wunderground v.1.15,2013-01-18 10:24:00,
2013-01-18 04:30:00,30.1,23.1,30.44,SSE,164,5.0,7.0,75,0.00,,,0.00,Wunderground v.1.15,2013-01-18 10:30:00,
2013-01-18 04:36:00,30.1,22.8,30.43,South,171,5.0,7.0,74,0.00,,,0.00,Wunderground v.1.15,2013-01-18 10:36:00,
2013-01-18 04:42:00,30.2,23.2,30.43,SSE,168,5.0,5.0,75,0.00,,,0.00,Wunderground v.1.15,2013-01-18 10:42:00,
2013-01-18 04:48:00,30.2,23.2,30.43,SSE,163,5.0,5.0,75,0.00,,,0.00,Wunderground v.1.15,2013-01-18 10:48:00,
2013-01-18 04:54:00,30.1,23.1,30.43,SSE,159,5.0,6.0,75,0.00,,,0.00,Wunderground v.1.15,2013-01-18 10:54:00,
2013-01-18 05:00:00,30.2,23.2,30.43,SSE,168,4.0,4.0,75,0.00,,,0.00,Wunderground v.1.15,2013-01-18 11:00:00,
2013-01-18 05:06:00,30.1,22.8,30.43,SSE,160,4.0,11.0,74,0.00,,,0.00,Wunderground v.1.15,2013-01-18 11:06:00,
2013-01-18 05:12:00,30.1,22.8,30.43,South,171,5.0,6.0,74,0.00,,,0.00,Wunderground v.1.15,2013-01-18 11:12:00,
2013-01-18 05:18:00,30.1,22.8,30.43,South,175,5.0,11.0,74,0.00,,,0.00,Wunderground v.1.15,2013-01-18 11:18:00,
2013-01-18 05:24:00,30.2,23.2,30.43,South,171,5.0,11.0,75,0.00,,,0.00,Wunderground v.1.15,2013-01-18 11:24:00,
2013-01-18 05:30:00,30.2,23.2,30.43,SSE,167,4.0,11.0,75,0.00,,,0.00,Wunderground v.1.15,2013-01-18 11:30:00,
2013-01-18 05:36:00,30.2,23.2,30.43,South,178,4.0,11.0,75,0.00,,,0.00,Wunderground v.1.15,2013-01-18 11:36:00,
2013-01-18 05:42:00,30.2,23.2,30.42,SSE,161,5.0,11.0,75,0.00,,,0.00,Wunderground v.1.15,2013-01-18 11:42:00,
2013-01-18 05:48:00,30.4,23.4,30.42,South,170,6.0,11.0,75,0.00,,,0.00,Wunderground v.1.15,2013-01-18 11:48:00,
2013-01-18 05:54:00,30.5,23.2,30.42,SSE,165,6.0,11.0,74,0.00,,,0.00,Wunderground v.1.15,2013-01-18 11:54:00,
2013-01-18 06:00:00,30.5,23.2,30.42,SSE,163,6.0,6.0,74,0.00,,,0.00,Wunderground v.1.15,2013-01-18 12:00:00,
2013-01-18 06:06:00,30.4,23.1,30.41,SSE,167,5.0,11.0,74,0.00,,,0.00,Wunderground v.1.15,2013-01-18 12:06:00,
2013-01-18 06:12:00,30.3,23.0,30.41,SSE,166,6.0,11.0,74,0.00,,,0.00,Wunderground v.1.15,2013-01-18 12:12:00,
2013-01-18 06:18:00,30.2,22.9,30.41,South,169,5.0,11.0,74,0.00,,,0.00,Wunderground v.1.15,2013-01-18 12:18:00,
2013-01-18 06:24:00,30.2,22.9,30.41,SSE,165,5.0,11.0,74,0.00,,,0.00,Wunderground v.1.15,2013-01-18 12:24:00,
2013-01-18 06:30:00,30.2,23.2,30.41,South,171,6.0,6.0,75,0.00,,,0.00,Wunderground v.1.15,2013-01-18 12:30:00,
2013-01-18 06:36:00,30.2,22.9,30.41,South,176,6.0,11.0,74,0.00,,,0.00,Wunderground v.1.15,2013-01-18 12:36:00,
2013-01-18 06:42:00,30.3,23.3,30.41,South,169,6.0,11.0,75,0.00,,,0.00,Wunderground v.1.15,2013-01-18 12:42:00,
2013-01-18 06:48:00,30.3,23.3,30.41,South,169,6.0,11.0,75,0.00,,,0.00,Wunderground v.1.15,2013-01-18 12:48:00,
2013-01-18 06:54:00,30.3,23.3,30.41,South,169,6.0,11.0,75,0.00,,,0.00,Wunderground v.1.15,2013-01-18 12:54:00,
2013-01-18 07:00:00,30.4,23.4,30.41,South,169,6.0,6.0,75,0.00,,,0.00,Wunderground v.1.15,2013-01-18 13:00:00,
2013-01-18 07:06:00,30.5,23.2,30.41,South,175,5.0,11.0,74,0.00,,,0.00,Wunderground v.1.15,2013-01-18 13:06:00,
2013-01-18 07:12:00,30.3,23.0,30.41,South,171,5.0,11.0,74,0.00,,,0.00,Wunderground v.1.15,2013-01-18 13:12:00,
2013-01-18 07:18:00,30.3,23.0,30.40,SSE,168,6.0,11.0,74,0.00,,,0.00,Wunderground v.1.15,2013-01-18 13:18:00,
2013-01-18 07:24:00,30.3,23.3,30.40,South,174,6.0,11.0,75,0.00,,,0.00,Wunderground v.1.15,2013-01-18 13:24:00,
2013-01-18 07:30:00,30.3,23.3,30.40,SSE,164,5.0,11.0,75,0.00,,,0.00,Wunderground v.1.15,2013-01-18 13:30:00,
2013-01-18 07:36:00,30.3,23.3,30.40,South,173,6.0,14.0,75,0.00,,,0.00,Wunderground v.1.15,2013-01-18 13:36:00,
2013-01-18 07:42:00,30.3,23.3,30.39,South,169,6.0,9.0,75,0.00,,,0.00,Wunderground v.1.15,2013-01-18 13:42:00,
2013-01-18 07:48:00,30.4,23.4,30.39,SSE,161,6.0,11.0,75,0.00,,,0.00,Wunderground v.1.15,2013-01-18 13:48:00,
2013-01-18 07:54:00,30.4,23.4,30.39,South,178,6.0,11.0,75,0.00,,,0.00,Wunderground v.1.15,2013-01-18 13:54:00,
2013-01-18 08:00:00,30.6,23.6,30.39,South,173,6.0,7.0,75,0.00,,,0.00,Wunderground v.1.15,2013-01-18 14:00:00,
2013-01-18 08:06:00,30.8,23.8,30.39,South,184,6.0,7.0,75,0.00,,,0.00,Wunderground v.1.15,2013-01-18 14:06:00,
2013-01-18 08:12:00,30.9,23.9,30.39,SSE,167,6.0,6.0,75,0.00,,,0.00,Wunderground v.1.15,2013-01-18 14:12:00,
2013-01-18 08:18:00,31.1,24.1,30.39,SSE,159,5.0,13.0,75,0.00,,,0.00,Wunderground v.1.15,2013-01-18 14:18:00,
2013-01-18 08:24:00,31.3,24.3,30.39,South,174,5.0,6.0,75,0.00,,,0.00,Wunderground v.1.15,2013-01-18 14:24:00,
2013-01-18 08:30:00,31.6,24.6,30.39,SSW,211,6.0,6.0,75,0.00,,,0.00,Wunderground v.1.15,2013-01-18 14:30:00,
2013-01-18 08:36:00,32.0,25.0,30.39,SSE,167,6.0,11.0,75,0.00,,,0.00,Wunderground v.1.15,2013-01-18 14:36:00,
2013-01-18 08:42:00,32.5,25.5,30.38,South,181,6.0,7.0,75,0.00,,,0.00,Wunderground v.1.15,2013-01-18 14:42:00,
2013-01-18 08:48:00,32.9,25.8,30.38,SSE,165,6.0,9.0,75,0.00,,,0.00,Wunderground v.1.15,2013-01-18 14:48:00,
2013-01-18 08:54:00,33.3,26.2,30.38,South,186,5.0,10.0,75,0.00,,,0.00,Wunderground v.1.15,2013-01-18 14:54:00,
2013-01-18 09:00:00,33.7,26.6,30.38,South,186,6.0,6.0,75,0.00,,,0.00,Wunderground v.1.15,2013-01-18 15:00:00,
2013-01-18 09:06:00,34.2,27.1,30.38,South,169,6.0,14.0,75,0.00,,,0.00,Wunderground v.1.15,2013-01-18 15:06:00,
2013-01-18 09:12:00,34.6,27.5,30.38,South,175,6.0,14.0,75,0.00,,,0.00,Wunderground v.1.15,2013-01-18 15:12:00,
2013-01-18 09:18:00,35.0,27.9,30.37,South,184,6.0,14.0,75,0.00,,,0.00,Wunderground v.1.15,2013-01-18 15:18:00,
2013-01-18 09:24:00,35.5,28.0,30.37,SSE,167,6.0,14.0,74,0.00,,,0.00,Wunderground v.1.15,2013-01-18 15:24:00,
2013-01-18 09:30:00,36.0,28.5,30.37,South,185,6.0,14.0,74,0.00,,,0.00,Wunderground v.1.15,2013-01-18 15:30:00,
2013-01-18 09:36:00,36.6,29.1,30.37,South,175,6.0,14.0,74,0.00,,,0.00,Wunderground v.1.15,2013-01-18 15:36:00,
2013-01-18 09:42:00,37.1,29.6,30.37,SW,220,5.0,14.0,74,0.00,,,0.00,Wunderground v.1.15,2013-01-18 15:42:00,
2013-01-18 09:48:00,37.7,30.2,30.37,South,172,5.0,14.0,74,0.00,,,0.00,Wunderground v.1.15,2013-01-18 15:48:00,
2013-01-18 09:54:00,38.2,30.6,30.36,South,179,6.0,14.0,74,0.00,,,0.00,Wunderground v.1.15,2013-01-18 15:54:00,
2013-01-18 10:00:00,38.8,31.2,30.37,South,186,6.0,6.0,74,0.00,,,0.00,Wunderground v.1.15,2013-01-18 16:00:00,
2013-01-18 10:06:00,39.3,31.4,30.36,South,171,6.0,14.0,73,0.00,,,0.00,Wunderground v.1.15,2013-01-18 16:06:00,
2013-01-18 10:12:00,39.9,31.9,30.36,SSE,164,5.0,14.0,73,0.00,,,0.00,Wunderground v.1.15,2013-01-18 16:12:00,
2013-01-18 10:18:00,40.4,32.4,30.35,SSW,195,6.0,14.0,73,0.00,,,0.00,Wunderground v.1.15,2013-01-18 16:18:00,
2013-01-18 10:24:00,41.0,33.0,30.35,South,190,6.0,14.0,73,0.00,,,0.00,Wunderground v.1.15,2013-01-18 16:24:00,
2013-01-18 10:30:00,41.5,33.1,30.35,WSW,237,6.0,6.0,72,0.00,,,0.00,Wunderground v.1.15,2013-01-18 16:30:00,
2013-01-18 10:36:00,42.0,33.6,30.34,South,172,6.0,15.0,72,0.00,,,0.00,Wunderground v.1.15,2013-01-18 16:36:00,
2013-01-18 10:42:00,42.4,34.0,30.33,South,178,6.0,10.0,72,0.00,,,0.00,Wunderground v.1.15,2013-01-18 16:42:00,
2013-01-18 10:48:00,42.8,34.4,30.33,SW,217,6.0,14.0,72,0.00,,,0.01,Wunderground v.1.15,2013-01-18 16:48:00,
2013-01-18 10:54:00,43.4,35.0,30.33,South,171,5.0,14.0,72,0.00,,,0.01,Wunderground v.1.15,2013-01-18 16:54:00,
2013-01-18 11:00:00,43.9,35.1,30.32,SW,217,6.0,14.0,71,0.00,,,0.01,Wunderground v.1.15,2013-01-18 17:00:00,
2013-01-18 11:06:00,44.2,35.4,30.31,SW,217,7.0,14.0,71,0.00,,,0.01,Wunderground v.1.15,2013-01-18 17:06:00,
2013-01-18 11:12:00,44.8,36.0,30.31,SSW,205,6.0,14.0,71,0.00,,,0.01,Wunderground v.1.15,2013-01-18 17:12:00,
2013-01-18 11:18:00,45.2,36.0,30.30,SSE,159,6.0,14.0,70,0.00,,,0.01,Wunderground v.1.15,2013-01-18 17:18:00,
2013-01-18 11:24:00,45.6,36.4,30.29,South,188,6.0,14.0,70,0.00,,,0.01,Wunderground v.1.15,2013-01-18 17:24:00,
2013-01-18 11:30:00,45.8,36.2,30.28,South,178,6.0,6.0,69,0.00,,,0.01,Wunderground v.1.15,2013-01-18 17:30:00,
2013-01-18 11:36:00,46.1,36.1,30.28,South,182,6.0,14.0,68,0.00,,,0.02,Wunderground v.1.15,2013-01-18 17:36:00,
2013-01-18 11:42:00,46.3,36.3,30.28,South,189,6.0,10.0,68,0.00,,,0.02,Wunderground v.1.15,2013-01-18 17:42:00,
2013-01-18 11:48:00,46.8,36.8,30.27,SSW,203,6.0,14.0,68,0.00,,,0.02,Wunderground v.1.15,2013-01-18 17:48:00,
2013-01-18 11:54:00,47.0,36.6,30.26,SW,214,6.0,14.0,67,0.00,,,0.02,Wunderground v.1.15,2013-01-18 17:54:00,
2013-01-18 12:00:00,47.0,36.6,30.26,SSW,205,7.0,7.0,67,0.00,,,0.02,Wunderground v.1.15,2013-01-18 18:00:00,
2013-01-18 12:06:00,47.3,36.9,30.26,SSW,205,6.0,7.0,67,0.00,,,0.02,Wunderground v.1.15,2013-01-18 18:06:00,
2013-01-18 12:12:00,47.6,36.8,30.25,SW,229,5.0,5.0,66,0.00,,,0.02,Wunderground v.1.15,2013-01-18 18:12:00,
2013-01-18 12:18:00,47.8,36.6,30.25,SSW,197,6.0,10.0,65,0.00,,,0.02,Wunderground v.1.15,2013-01-18 18:18:00,
2013-01-18 12:24:00,47.9,36.7,30.24,South,171,6.0,12.0,65,0.00,,,0.02,Wunderground v.1.15,2013-01-18 18:24:00,
2013-01-18 12:30:00,48.4,37.2,30.24,South,183,5.0,5.0,65,0.00,,,0.03,Wunderground v.1.15,2013-01-18 18:30:00,
2013-01-18 12:36:00,48.8,37.2,30.23,SW,226,6.0,6.0,64,0.00,,,0.03,Wunderground v.1.15,2013-01-18 18:36:00,
2013-01-18 12:42:00,48.9,37.3,30.23,South,178,6.0,10.0,64,0.00,,,0.03,Wunderground v.1.15,2013-01-18 18:42:00,
2013-01-18 12:48:00,49.2,37.5,30.22,South,184,6.0,10.0,64,0.00,,,0.03,Wunderground v.1.15,2013-01-18 18:48:00,
2013-01-18 12:54:00,49.5,37.4,30.22,South,188,6.0,13.0,63,0.00,,,0.03,Wunderground v.1.15,2013-01-18 18:54:00,
2013-01-18 13:00:00,49.9,37.8,30.21,South,178,6.0,6.0,63,0.00,,,0.03,Wunderground v.1.15,2013-01-18 19:00:00,
2013-01-18 13:06:00,50.2,37.7,30.20,SW,227,6.0,16.0,62,0.00,,,0.03,Wunderground v.1.15,2013-01-18 19:06:00,
2013-01-18 13:12:00,50.6,38.1,30.20,SSW,197,5.0,6.0,62,0.00,,,0.03,Wunderground v.1.15,2013-01-18 19:12:00,
2013-01-18 13:18:00,50.9,37.9,30.19,SSW,196,6.0,16.0,61,0.00,,,0.03,Wunderground v.1.15,2013-01-18 19:18:00,
2013-01-18 13:24:00,51.1,38.1,30.19,SSW,202,6.0,16.0,61,0.00,,,0.03,Wunderground v.1.15,2013-01-18 19:24:00,
2013-01-18 13:30:00,51.4,38.0,30.18,SSW,210,6.0,16.0,60,0.00,,,0.03,Wunderground v.1.15,2013-01-18 19:30:00,
2013-01-18 13:36:00,51.5,37.6,30.18,SSW,212,7.0,16.0,59,0.00,,,0.03,Wunderground v.1.15,2013-01-18 19:36:00,
2013-01-18 13:42:00,51.6,37.7,30.17,SSW,209,7.0,16.0,59,0.00,,,0.03,Wunderground v.1.15,2013-01-18 19:42:00,
2013-01-18 13:48:00,51.8,37.5,30.17,SSW,203,7.0,16.0,58,0.00,,,0.03,Wunderground v.1.15,2013-01-18 19:48:00,
2013-01-18 13:54:00,51.9,37.6,30.16,SSW,196,8.0,16.0,58,0.00,,,0.03,Wunderground v.1.15,2013-01-18 19:54:00,
2013-01-18 14:00:00,52.0,37.2,30.16,SW,234,7.0,16.0,57,0.00,,,0.03,Wunderground v.1.15,2013-01-18 20:00:00,
2013-01-18 14:06:00,52.1,37.3,30.15,SW,226,8.0,16.0,57,0.00,,,0.03,Wunderground v.1.15,2013-01-18 20:06:00,
2013-01-18 14:12:00,52.3,37.5,30.15,SW,218,8.0,16.0,57,0.00,,,0.03,Wunderground v.1.15,2013-01-18 20:12:00,
2013-01-18 14:18:00,52.6,37.3,30.15,SSW,211,7.0,16.0,56,0.00,,,0.03,Wunderground v.1.15,2013-01-18 20:18:00,
2013-01-18 14:24:00,52.9,37.6,30.15,SSW,193,6.0,16.0,56,0.00,,,0.03,Wunderground v.1.15,2013-01-18 20:24:00,
2013-01-18 14:30:00,53.1,37.8,30.14,SSW,208,7.0,16.0,56,0.00,,,0.03,Wunderground v.1.15,2013-01-18 20:30:00,
2013-01-18 14:36:00,53.3,37.5,30.14,SW,227,8.0,16.0,55,0.00,,,0.03,Wunderground v.1.15,2013-01-18 20:36:00,
2013-01-18 14:42:00,53.5,37.7,30.14,SSW,207,7.0,16.0,55,0.00,,,0.03,Wunderground v.1.15,2013-01-18 20:42:00,
2013-01-18 14:48:00,53.6,37.3,30.14,SW,225,7.0,16.0,54,0.00,,,0.03,Wunderground v.1.15,2013-01-18 20:48:00,
2013-01-18 14:54:00,53.8,37.5,30.14,SW,214,8.0,16.0,54,0.00,,,0.03,Wunderground v.1.15,2013-01-18 20:54:00,
2013-01-18 15:00:00,53.9,37.1,30.13,SSW,199,8.0,8.0,53,0.00,,,0.03,Wunderground v.1.15,2013-01-18 21:00:00,
2013-01-18 15:06:00,54.0,37.2,30.13,SSW,205,7.0,10.0,53,0.00,,,0.03,Wunderground v.1.15,2013-01-18 21:06:00,
2013-01-18 15:12:00,54.1,37.3,30.12,South,180,6.0,6.0,53,0.00,,,0.03,Wunderground v.1.15,2013-01-18 21:12:00,
2013-01-18 15:18:00,54.0,36.8,30.12,South,191,8.0,12.0,52,0.00,,,0.03,Wunderground v.1.15,2013-01-18 21:18:00,
2013-01-18 15:24:00,54.0,36.8,30.12,SSW,192,7.0,8.0,52,0.00,,,0.03,Wunderground v.1.15,2013-01-18 21:24:00,
2013-01-18 15:30:00,54.1,36.9,30.11,SSW,213,7.0,11.0,52,0.00,,,0.03,Wunderground v.1.15,2013-01-18 21:30:00,
2013-01-18 15:36:00,54.1,36.9,30.11,SW,235,6.0,11.0,52,0.00,,,0.03,Wunderground v.1.15,2013-01-18 21:36:00,
2013-01-18 15:42:00,54.2,36.9,30.11,SW,214,7.0,9.0,52,0.00,,,0.03,Wunderground v.1.15,2013-01-18 21:42:00,
2013-01-18 15:48:00,54.3,36.5,30.11,SSW,199,7.0,9.0,51,0.00,,,0.03,Wunderground v.1.15,2013-01-18 21:48:00,
2013-01-18 15:54:00,54.3,36.0,30.11,SW,223,8.0,10.0,50,0.00,,,0.03,Wunderground v.1.15,2013-01-18 21:54:00,
2013-01-18 16:00:00,54.2,36.5,30.10,South,190,8.0,8.0,51,0.00,,,0.03,Wunderground v.1.15,2013-01-18 22:00:00,
2013-01-18 16:06:00,54.2,36.5,30.10,South,178,7.0,17.0,51,0.00,,,0.03,Wunderground v.1.15,2013-01-18 22:06:00,
2013-01-18 16:12:00,54.0,35.8,30.10,SW,226,7.0,17.0,50,0.00,,,0.03,Wunderground v.1.15,2013-01-18 22:12:00,
2013-01-18 16:18:00,53.9,35.7,30.10,SW,221,7.0,17.0,50,0.00,,,0.03,Wunderground v.1.15,2013-01-18 22:18:00,
2013-01-18 16:24:00,53.6,35.4,30.09,SW,227,6.0,17.0,50,0.00,,,0.03,Wunderground v.1.15,2013-01-18 22:24:00,
2013-01-18 16:30:00,53.3,35.1,30.09,South,182,6.0,6.0,50,0.00,,,0.03,Wunderground v.1.15,2013-01-18 22:30:00,
2013-01-18 16:36:00,53.1,34.9,30.09,SSW,201,5.0,17.0,50,0.00,,,0.03,Wunderground v.1.15,2013-01-18 22:36:00,
2013-01-18 16:42:00,53.1,34.9,30.09,SSW,198,6.0,17.0,50,0.00,,,0.03,Wunderground v.1.15,2013-01-18 22:42:00,
2013-01-18 16:48:00,53.0,34.3,30.10,SSW,212,6.0,17.0,49,0.00,,,0.03,Wunderground v.1.15,2013-01-18 22:48:00,
2013-01-18 16:54:00,52.8,34.2,30.10,SW,221,5.0,17.0,49,0.00,,,0.03,Wunderground v.1.15,2013-01-18 22:54:00,
2013-01-18 17:00:00,52.6,34.0,30.10,South,190,5.0,5.0,49,0.00,,,0.03,Wunderground v.1.15,2013-01-18 23:00:00,
2013-01-18 17:06:00,52.3,33.7,30.10,SSW,202,5.0,17.0,49,0.00,,,0.03,Wunderground v.1.15,2013-01-18 23:06:00,
2013-01-18 17:12:00,52.0,33.4,30.10,SW,227,5.0,17.0,49,0.00,,,0.03,Wunderground v.1.15,2013-01-18 23:12:00,
2013-01-18 17:18:00,51.8,33.2,30.10,South,191,5.0,17.0,49,0.00,,,0.03,Wunderground v.1.15,2013-01-18 23:18:00,
2013-01-18 17:24:00,51.4,32.9,30.09,South,175,4.0,17.0,49,0.00,,,0.03,Wunderground v.1.15,2013-01-18 23:24:00,
2013-01-18 17:30:00,50.9,32.4,30.09,South,189,4.0,4.0,49,0.00,,,0.03,Wunderground v.1.15,2013-01-18 23:30:00,
2013-01-18 17:36:00,50.6,32.1,30.09,SSE,167,5.0,17.0,49,0.00,,,0.03,Wunderground v.1.15,2013-01-18 23:36:00,
2013-01-18 17:42:00,50.4,31.9,30.09,South,173,5.0,17.0,49,0.00,,,0.03,Wunderground v.1.15,2013-01-18 23:42:00,
2013-01-18 17:48:00,50.0,31.6,30.09,South,175,4.0,17.0,49,0.00,,,0.03,Wunderground v.1.15,2013-01-18 23:48:00,
2013-01-18 17:54:00,49.8,31.4,30.09,South,184,4.0,17.0,49,0.00,,,0.03,Wunderground v.1.15,2013-01-18 23:54:00,
2013-01-18 18:00:00,49.7,31.3,30.09,South,175,4.0,4.0,49,0.00,,,0.03,Wunderground v.1.15,2013-01-19 00:00:00,
2013-01-18 18:06:00,49.7,31.3,30.09,SSW,200,4.0,4.0,49,0.00,,,0.03,Wunderground v.1.15,2013-01-19 00:06:00,
2013-01-18 18:12:00,49.7,31.3,30.09,SSW,211,3.0,3.0,49,0.00,,,0.03,Wunderground v.1.15,2013-01-19 00:12:00,
2013-01-18 18:18:00,49.5,31.1,30.10,SW,232,3.0,6.0,49,0.00,,,0.03,Wunderground v.1.15,2013-01-19 00:18:00,
2013-01-18 18:24:00,49.5,31.1,30.10,SW,226,4.0,9.0,49,0.00,,,0.03,Wunderground v.1.15,2013-01-19 00:24:00,
2013-01-18 18:30:00,49.5,31.1,30.09,South,190,4.0,5.0,49,0.00,,,0.03,Wunderground v.1.15,2013-01-19 00:30:00,
2013-01-18 18:36:00,49.6,31.2,30.10,South,184,4.0,5.0,49,0.00,,,0.03,Wunderground v.1.15,2013-01-19 00:36:00,
2013-01-18 18:42:00,49.6,31.2,30.10,SW,222,4.0,4.0,49,0.00,,,0.03,Wunderground v.1.15,2013-01-19 00:42:00,
2013-01-18 18:48:00,49.7,31.3,30.10,SW,230,5.0,5.0,49,0.00,,,0.03,Wunderground v.1.15,2013-01-19 00:48:00,
2013-01-18 18:54:00,49.8,31.4,30.10,SSW,211,5.0,8.0,49,0.00,,,0.03,Wunderground v.1.15,2013-01-19 00:54:00,
2013-01-18 19:00:00,49.6,31.2,30.09,SSW,203,5.0,13.0,49,0.00,,,0.03,Wunderground v.1.15,2013-01-19 01:00:00,
2013-01-18 19:06:00,49.5,31.1,30.09,SSE,165,5.0,13.0,49,0.00,,,0.03,Wunderground v.1.15,2013-01-19 01:06:00,
2013-01-18 19:12:00,49.4,31.0,30.09,SSW,208,5.0,13.0,49,0.00,,,0.03,Wunderground v.1.15,2013-01-19 01:12:00,
2013-01-18 19:18:00,49.4,31.0,30.09,South,190,5.0,13.0,49,0.00,,,0.03,Wunderground v.1.15,2013-01-19 01:18:00,
2013-01-18 19:24:00,49.4,31.0,30.09,SSW,193,5.0,13.0,49,0.00,,,0.03,Wunderground v.1.15,2013-01-19 01:24:00,
2013-01-18 19:30:00,49.2,30.3,30.10,SSW,192,5.0,5.0,48,0.00,,,0.03,Wunderground v.1.15,2013-01-19 01:30:00,
2013-01-18 19:36:00,49.1,30.2,30.09,SW,221,4.0,13.0,48,0.00,,,0.03,Wunderground v.1.15,2013-01-19 01:36:00,
2013-01-18 19:42:00,48.9,30.1,30.09,South,189,4.0,13.0,48,0.00,,,0.03,Wunderground v.1.15,2013-01-19 01:42:00,
2013-01-18 19:48:00,48.7,29.9,30.09,SSW,198,5.0,13.0,48,0.00,,,0.03,Wunderground v.1.15,2013-01-19 01:48:00,
2013-01-18 19:54:00,48.5,29.7,30.09,SSW,206,4.0,13.0,48,0.00,,,0.03,Wunderground v.1.15,2013-01-19 01:54:00,
2013-01-18 20:00:00,48.3,30.0,30.09,SSW,210,4.0,13.0,49,0.00,,,0.03,Wunderground v.1.15,2013-01-19 02:00:00,
2013-01-18 20:06:00,48.2,29.9,30.09,SSW,206,5.0,13.0,49,0.00,,,0.03,Wunderground v.1.15,2013-01-19 02:06:00,
2013-01-18 20:12:00,48.1,29.8,30.09,SSW,205,5.0,13.0,49,0.00,,,0.03,Wunderground v.1.15,2013-01-19 02:12:00,
2013-01-18 20:18:00,47.9,29.6,30.09,SW,222,4.0,13.0,49,0.00,,,0.03,Wunderground v.1.15,2013-01-19 02:18:00,
2013-01-18 20:24:00,47.9,29.6,30.09,SW,223,5.0,13.0,49,0.00,,,0.03,Wunderground v.1.15,2013-01-19 02:24:00,
2013-01-18 20:30:00,47.6,29.4,30.10,SW,230,5.0,5.0,49,0.00,,,0.03,Wunderground v.1.15,2013-01-19 02:30:00,
2013-01-18 20:36:00,47.5,29.3,30.10,SW,232,5.0,13.0,49,0.00,,,0.03,Wunderground v.1.15,2013-01-19 02:36:00,
2013-01-18 20:42:00,47.4,29.2,30.10,SW,228,4.0,13.0,49,0.00,,,0.03,Wunderground v.1.15,2013-01-19 02:42:00,
2013-01-18 20:48:00,47.3,29.1,30.09,SSW,210,4.0,13.0,49,0.00,,,0.03,Wunderground v.1.15,2013-01-19 02:48:00,
2013-01-18 20:54:00,47.2,29.0,30.09,SW,231,4.0,13.0,49,0.00,,,0.03,Wunderground v.1.15,2013-01-19 02:54:00,
2013-01-18 21:00:00,47.1,28.9,30.09,SSW,198,4.0,4.0,49,0.00,,,0.03,Wunderground v.1.15,2013-01-19 03:00:00,
2013-01-18 21:06:00,47.0,28.8,30.09,SSW,198,4.0,5.0,49,0.00,,,0.03,Wunderground v.1.15,2013-01-19 03:06:00,
2013-01-18 21:12:00,46.9,28.7,30.09,SSW,195,5.0,6.0,49,0.00,,,0.03,Wunderground v.1.15,2013-01-19 03:12:00,
2013-01-18 21:18:00,46.8,28.6,30.09,SW,227,5.0,6.0,49,0.00,,,0.03,Wunderground v.1.15,2013-01-19 03:18:00,
2013-01-18 21:24:00,46.6,28.4,30.09,SW,221,4.0,4.0,49,0.00,,,0.03,Wunderground v.1.15,2013-01-19 03:24:00,
2013-01-18 21:30:00,46.3,28.2,30.09,SW,221,3.0,3.0,49,0.00,,,0.03,Wunderground v.1.15,2013-01-19 03:30:00,
2013-01-18 21:36:00,45.9,27.8,30.09,SW,219,3.0,6.0,49,0.00,,,0.03,Wunderground v.1.15,2013-01-19 03:36:00,
2013-01-18 21:42:00,45.7,27.6,30.08,SSW,206,3.0,4.0,49,0.00,,,0.03,Wunderground v.1.15,2013-01-19 03:42:00,
2013-01-18 21:48:00,45.6,27.5,30.08,South,183,3.0,4.0,49,0.00,,,0.03,Wunderground v.1.15,2013-01-19 03:48:00,
2013-01-18 21:54:00,45.7,28.1,30.08,SW,215,4.0,4.0,50,0.00,,,0.03,Wunderground v.1.15,2013-01-19 03:54:00,
2013-01-18 22:00:00,45.8,28.2,30.08,SSW,195,4.0,10.0,50,0.00,,,0.03,Wunderground v.1.15,2013-01-19 04:00:00,
2013-01-18 22:06:00,46.0,28.4,30.08,South,190,5.0,11.0,50,0.00,,,0.03,Wunderground v.1.15,2013-01-19 04:06:00,
2013-01-18 22:12:00,46.0,28.4,30.08,SSW,199,5.0,10.0,50,0.00,,,0.03,Wunderground v.1.15,2013-01-19 04:12:00,
2013-01-18 22:18:00,45.9,28.3,30.08,SSW,198,5.0,10.0,50,0.00,,,0.03,Wunderground v.1.15,2013-01-19 04:18:00,
2013-01-18 22:24:00,45.8,28.2,30.08,SW,215,5.0,10.0,50,0.00,,,0.03,Wunderground v.1.15,2013-01-19 04:24:00,
2013-01-18 22:30:00,45.8,28.2,30.08,South,184,5.0,5.0,50,0.00,,,0.03,Wunderground v.1.15,2013-01-19 04:30:00,
2013-01-18 22:36:00,45.9,28.3,30.07,SSW,210,5.0,10.0,50,0.00,,,0.03,Wunderground v.1.15,2013-01-19 04:36:00,
2013-01-18 22:42:00,46.0,28.4,30.07,SW,214,6.0,10.0,50,0.00,,,0.03,Wunderground v.1.15,2013-01-19 04:42:00,
2013-01-18 22:48:00,45.9,28.3,30.07,SW,217,5.0,10.0,50,0.00,,,0.03,Wunderground v.1.15,2013-01-19 04:48:00,
2013-01-18 22:54:00,45.8,28.2,30.07,SW,218,5.0,10.0,50,0.00,,,0.03,Wunderground v.1.15,2013-01-19 04:54:00,
2013-01-18 23:00:00,45.5,27.9,30.07,South,187,4.0,10.0,50,0.00,,,0.03,Wunderground v.1.15,2013-01-19 05:00:00,
2013-01-18 23:06:00,45.2,27.6,30.07,SSW,200,4.0,10.0,50,0.00,,,0.03,Wunderground v.1.15,2013-01-19 05:06:00,
2013-01-18 23:10:00,45.2,27.6,30.08,SSW,207,4.0,10.0,50,0.00,,,0.03,Wunderground v.1.15,2013-01-19 05:10:00,
2013-01-18 23:14:00,45.1,27.6,30.08,SW,214,4.0,10.0,50,0.00,,,0.03,Wunderground v.1.15,2013-01-19 05:14:00,
2013-01-18 23:20:00,45.0,27.5,30.08,SSW,203,4.0,10.0,50,0.00,,,0.03,Wunderground v.1.15,2013-01-19 05:20:00,
2013-01-18 23:26:00,44.8,27.3,30.08,SSW,197,4.0,10.0,50,0.00,,,0.03,Wunderground v.1.15,2013-01-19 05:26:00,
2013-01-18 23:32:00,44.7,27.7,30.08,SW,215,5.0,5.0,51,0.00,,,0.03,Wunderground v.1.15,2013-01-19 05:32:00,
2013-01-18 23:38:00,44.5,27.5,30.08,SSW,202,4.0,10.0,51,0.00,,,0.03,Wunderground v.1.15,2013-01-19 05:38:00,
2013-01-18 23:44:00,44.5,27.5,30.07,SSW,198,4.0,10.0,51,0.00,,,0.03,Wunderground v.1.15,2013-01-19 05:44:00,
2013-01-18 23:50:00,44.4,27.4,30.07,South,184,4.0,10.0,51,0.00,,,0.03,Wunderground v.1.15,2013-01-19 05:50:00,
2013-01-18 23:56:00,44.4,27.4,30.07,SW,215,5.0,10.0,51,0.00,,,0.03,Wunderground v.1.15,2013-01-19 05:56:00,